Time,TemperatureF,DewpointF,PressureIn,WindDirection,WindDirectionDegrees,WindSpeedMPH,WindSpeedGustMPH,Humidity,HourlyPrecipIn,Conditions,Clouds,dailyrainin,SoftwareType,DateUTC
2013-05-01 00:01:00,54.6,-0.9,30.21,NNE,13,0.0,0.0,10,0.00,,OVC029,0.00,VWS V14.01,2013-05-01 04:01:00,
2013-05-01 00:06:00,54.5,-0.9,30.21,NNE,13,0.0,0.0,10,0.00,,OVC029,0.00,VWS V14.01,2013-05-01 04:06:00,
2013-05-01 00:11:00,54.5,-0.9,30.22,NNE,13,0.0,0.0,10,0.00,,OVC029,0.00,VWS V14.01,2013-05-01 04:11:00,
2013-05-01 00:16:00,54.3,-1.1,30.22,NNE,13,0.0,0.0,10,0.00,,OVC029,0.00,VWS V14.01,2013-05-01 04:16:00,
2013-05-01 00:21:00,54.2,-1.2,30.22,NNE,13,0.0,0.0,10,0.00,,OVC029,0.00,VWS V14.01,2013-05-01 04:21:00,
2013-05-01 00:26:00,54.1,-1.3,30.22,NNE,13,0.0,0.0,10,0.00,,OVC029,0.00,VWS V14.01,2013-05-01 04:26:00,
2013-05-01 00:31:00,53.9,-1.4,30.22,NNE,13,0.0,0.0,10,0.00,,OVC029,0.00,VWS V14.01,2013-05-01 04:31:00,
2013-05-01 00:36:00,53.8,-1.5,30.22,NNE,13,0.0,0.0,10,0.00,,OVC029,0.00,VWS V14.01,2013-05-01 04:36:00,
2013-05-01 00:41:00,53.7,-1.6,30.23,NNE,13,0.0,0.0,10,0.00,,OVC029,0.00,VWS V14.01,2013-05-01 04:41:00,
2013-05-01 00:46:00,53.5,-1.7,30.23,NNE,13,0.0,0.0,10,0.00,,OVC029,0.00,VWS V14.01,2013-05-01 04:46:00,
2013-05-01 00:51:00,53.3,-1.9,30.23,NNE,13,0.0,0.0,10,0.00,,OVC029,0.00,VWS V14.01,2013-05-01 04:51:00,
2013-05-01 00:56:00,53.1,-2.0,30.23,NNE,13,0.0,0.0,10,0.00,,OVC029,0.00,VWS V14.01,2013-05-01 04:56:00,
2013-05-01 01:01:00,53.0,-2.1,30.23,NNE,13,0.0,0.0,10,0.00,,OVC033,0.00,VWS V14.01,2013-05-01 05:01:00,
2013-05-01 01:06:00,53.0,-2.1,30.23,NNE,13,0.0,0.0,10,0.00,,OVC033,0.00,VWS V14.01,2013-05-01 05:06:00,
2013-05-01 01:11:00,53.1,-2.0,30.23,NNE,13,0.0,0.0,10,0.00,,OVC033,0.00,VWS V14.01,2013-05-01 05:11:00,
2013-05-01 01:16:00,53.2,-2.0,30.23,NNE,13,0.0,0.0,10,0.00,,OVC033,0.00,VWS V14.01,2013-05-01 05:16:00,
2013-05-01 01:21:00,53.4,-4.0,30.22,NNE,13,0.0,0.0,9,0.00,,OVC033,0.00,VWS V14.01,2013-05-01 05:21:00,
2013-05-01 01:26:00,53.4,-4.0,30.22,NNE,13,0.0,0.0,9,0.00,,OVC033,0.00,VWS V14.01,2013-05-01 05:26:00,
2013-05-01 01:31:00,53.6,-3.9,30.22,NNE,13,0.0,0.0,9,0.00,,OVC033,0.00,VWS V14.01,2013-05-01 05:31:00,
2013-05-01 01:36:00,53.7,-3.8,30.22,NNE,13,0.0,0.0,9,0.00,,OVC033,0.00,VWS V14.01,2013-05-01 05:36:00,
2013-05-01 01:41:00,53.7,-3.8,30.22,NNE,13,0.0,0.0,9,0.00,,OVC033,0.00,VWS V14.01,2013-05-01 05:41:00,
2013-05-01 01:46:00,53.6,-3.9,30.22,NNE,13,0.0,0.0,9,0.00,,OVC033,0.00,VWS V14.01,2013-05-01 05:46:00,
2013-05-01 01:51:00,53.6,-3.9,30.22,NNE,13,0.0,0.0,9,0.00,,OVC033,0.00,VWS V14.01,2013-05-01 05:51:00,
2013-05-01 01:56:00,53.4,-4.0,30.22,NNE,13,0.0,0.0,9,0.00,,OVC033,0.00,VWS V14.01,2013-05-01 05:56:00,
2013-05-01 02:01:00,53.3,-4.1,30.22,NNE,13,0.0,0.0,9,0.00,,OVC033,0.00,VWS V14.01,2013-05-01 06:01:00,
2013-05-01 02:07:00,53.4,-4.0,30.22,NNE,13,0.0,0.0,9,0.00,,OVC033,0.00,VWS V14.01,2013-05-01 06:07:00,
2013-05-01 02:12:00,53.3,-4.1,30.22,NNE,13,0.0,0.0,9,0.00,,OVC033,0.00,VWS V14.01,2013-05-01 06:12:00,
2013-05-01 02:17:00,53.1,-4.2,30.22,NNE,13,0.0,0.0,9,0.00,,OVC033,0.00,VWS V14.01,2013-05-01 06:17:00,
2013-05-01 02:22:00,52.9,-4.4,30.22,NNE,13,0.0,0.0,9,0.00,,OVC033,0.00,VWS V14.01,2013-05-01 06:22:00,
2013-05-01 02:27:00,52.8,-4.5,30.22,NNE,13,0.0,0.0,9,0.00,,OVC033,0.00,VWS V14.01,2013-05-01 06:27:00,
2013-05-01 02:31:00,52.6,-4.6,30.22,NNE,13,0.0,0.0,9,0.00,,OVC033,0.00,VWS V14.01,2013-05-01 06:31:00,
2013-05-01 02:36:00,52.5,-4.7,30.22,NNE,13,0.0,0.0,9,0.00,,OVC033,0.00,VWS V14.01,2013-05-01 06:36:00,
2013-05-01 02:41:00,52.3,-2.7,30.22,NNE,13,0.0,0.0,10,0.00,,OVC033,0.00,VWS V14.01,2013-05-01 06:41:00,
2013-05-01 02:46:00,52.1,-2.8,30.22,NNE,13,0.0,0.0,10,0.00,,OVC033,0.00,VWS V14.01,2013-05-01 06:46:00,
2013-05-01 02:51:00,52.0,-2.9,30.22,NNE,13,0.0,0.0,10,0.00,,OVC033,0.00,VWS V14.01,2013-05-01 06:51:00,
2013-05-01 02:57:00,51.9,-3.0,30.22,NNE,13,0.0,0.0,10,0.00,,OVC033,0.00,VWS V14.01,2013-05-01 06:57:00,
2013-05-01 03:02:00,51.7,-3.1,30.22,NNE,13,0.0,0.0,10,0.00,,OVC033,0.00,VWS V14.01,2013-05-01 07:02:00,
2013-05-01 03:07:00,51.5,-3.3,30.22,NNE,13,0.0,0.0,10,0.00,,OVC033,0.00,VWS V14.01,2013-05-01 07:07:00,
2013-05-01 03:12:00,51.5,-3.3,30.22,NNE,13,0.0,0.0,10,0.00,,OVC033,0.00,VWS V14.01,2013-05-01 07:12:00,
2013-05-01 03:17:00,51.5,-3.3,30.22,NNE,13,0.0,0.0,10,0.00,,OVC033,0.00,VWS V14.01,2013-05-01 07:17:00,
2013-05-01 03:21:00,51.4,-3.3,30.22,NNE,13,0.0,0.0,10,0.00,,OVC033,0.00,VWS V14.01,2013-05-01 07:21:00,
2013-05-01 03:27:00,51.3,-3.4,30.22,NNE,13,0.0,0.0,10,0.00,,OVC033,0.00,VWS V14.01,2013-05-01 07:27:00,
2013-05-01 03:32:00,51.2,-3.5,30.22,NNE,13,0.0,0.0,10,0.00,,OVC033,0.00,VWS V14.01,2013-05-01 07:32:00,
2013-05-01 03:36:00,51.3,-3.4,30.22,NNE,13,0.0,0.0,10,0.00,,OVC033,0.00,VWS V14.01,2013-05-01 07:36:00,
2013-05-01 03:42:00,51.3,-3.4,30.22,NNE,13,0.0,0.0,10,0.00,,OVC033,0.00,VWS V14.01,2013-05-01 07:42:00,
2013-05-01 03:46:00,51.5,-3.3,30.22,NNE,13,0.0,0.0,10,0.00,,OVC033,0.00,VWS V14.01,2013-05-01 07:46:00,
2013-05-01 03:51:00,51.8,-3.0,30.22,NNE,13,0.0,0.0,10,0.00,,OVC033,0.00,VWS V14.01,2013-05-01 07:51:00,
2013-05-01 03:56:00,51.9,-3.0,30.22,NNE,13,0.0,0.0,10,0.00,,OVC033,0.00,VWS V14.01,2013-05-01 07:56:00,
2013-05-01 04:01:00,52.0,-2.9,30.22,NNE,13,0.0,0.0,10,0.00,,OVC035,0.00,VWS V14.01,2013-05-01 08:01:00,
2013-05-01 04:06:00,52.2,-2.7,30.22,NNE,13,0.0,0.0,10,0.00,,OVC035,0.00,VWS V14.01,2013-05-01 08:06:00,
2013-05-01 04:11:00,52.3,-4.8,30.22,NNE,13,0.0,0.0,9,0.00,,OVC035,0.00,VWS V14.01,2013-05-01 08:11:00,
2013-05-01 04:16:00,52.5,-4.7,30.22,NNE,13,0.0,0.0,9,0.00,,OVC035,0.00,VWS V14.01,2013-05-01 08:16:00,
2013-05-01 04:21:00,52.6,-4.6,30.22,NNE,13,0.0,0.0,9,0.00,,OVC035,0.00,VWS V14.01,2013-05-01 08:21:00,
2013-05-01 04:26:00,52.5,-4.7,30.22,NNE,13,0.0,0.0,9,0.00,,OVC035,0.00,VWS V14.01,2013-05-01 08:26:00,
2013-05-01 04:31:00,52.3,-4.8,30.22,NNE,13,0.0,0.0,9,0.00,,OVC035,0.00,VWS V14.01,2013-05-01 08:31:00,
2013-05-01 04:36:00,52.0,-2.9,30.23,NNE,13,0.0,0.0,10,0.00,,OVC035,0.00,VWS V14.01,2013-05-01 08:36:00,
2013-05-01 04:41:00,51.9,-3.0,30.23,NNE,13,0.0,0.0,10,0.00,,OVC035,0.00,VWS V14.01,2013-05-01 08:41:00,
2013-05-01 04:46:00,51.8,-3.0,30.23,NNE,13,0.0,0.0,10,0.00,,OVC035,0.00,VWS V14.01,2013-05-01 08:46:00,
2013-05-01 04:51:00,51.7,-3.1,30.23,NNE,13,0.0,0.0,10,0.00,,OVC035,0.00,VWS V14.01,2013-05-01 08:51:00,
2013-05-01 04:56:00,51.6,-3.2,30.23,NNE,13,0.0,0.0,10,0.00,,OVC035,0.00,VWS V14.01,2013-05-01 08:56:00,
2013-05-01 05:01:00,51.6,-3.2,30.23,NNE,13,0.0,0.0,10,0.00,,OVC035,0.00,VWS V14.01,2013-05-01 09:01:00,
2013-05-01 05:06:00,51.6,-3.2,30.23,NNE,13,0.0,0.0,10,0.00,,OVC035,0.00,VWS V14.01,2013-05-01 09:06:00,
2013-05-01 05:11:00,51.7,-3.1,30.23,NNE,13,0.0,0.0,10,0.00,,OVC035,0.00,VWS V14.01,2013-05-01 09:11:00,
2013-05-01 05:16:00,51.9,-3.0,30.23,NNE,13,0.0,0.0,10,0.00,,OVC035,0.00,VWS V14.01,2013-05-01 09:16:00,
2013-05-01 05:21:00,52.0,-2.9,30.23,NNE,13,0.0,0.0,10,0.00,,OVC035,0.00,VWS V14.01,2013-05-01 09:21:00,
2013-05-01 05:26:00,52.1,-5.0,30.23,NNE,13,0.0,0.0,9,0.00,,OVC035,0.00,VWS V14.01,2013-05-01 09:26:00,
2013-05-01 05:31:00,52.2,-4.9,30.23,NNE,13,0.0,0.0,9,0.00,,OVC035,0.00,VWS V14.01,2013-05-01 09:31:00,
2013-05-01 05:36:00,52.3,-4.8,30.23,NNE,13,0.0,0.0,9,0.00,,OVC035,0.00,VWS V14.01,2013-05-01 09:36:00,
2013-05-01 05:41:00,52.4,-4.8,30.23,NNE,13,0.0,0.0,9,0.00,,OVC035,0.00,VWS V14.01,2013-05-01 09:41:00,
2013-05-01 05:46:00,52.5,-4.7,30.23,NNE,13,0.0,0.0,9,0.00,,OVC035,0.00,VWS V14.01,2013-05-01 09:46:00,
2013-05-01 05:51:00,52.6,-4.6,30.24,NNE,13,0.0,0.0,9,0.00,,OVC035,0.00,VWS V14.01,2013-05-01 09:51:00,
2013-05-01 05:56:00,52.6,-4.6,30.24,NNE,13,0.0,0.0,9,0.00,,OVC035,0.00,VWS V14.01,2013-05-01 09:56:00,
2013-05-01 06:01:00,52.7,-4.5,30.24,NNE,13,0.0,0.0,9,0.00,,OVC033,0.00,VWS V14.01,2013-05-01 10:01:00,
2013-05-01 06:06:00,52.8,-4.5,30.24,NNE,13,0.0,0.0,9,0.00,,OVC033,0.00,VWS V14.01,2013-05-01 10:06:00,
2013-05-01 06:11:00,53.0,-4.3,30.24,NNE,13,0.0,0.0,9,0.00,,OVC033,0.00,VWS V14.01,2013-05-01 10:11:00,
2013-05-01 06:16:00,53.1,-4.2,30.24,NNE,13,0.0,0.0,9,0.00,,OVC033,0.00,VWS V14.01,2013-05-01 10:16:00,
2013-05-01 06:21:00,53.2,-4.2,30.24,NNE,13,0.0,0.0,9,0.00,,OVC033,0.00,VWS V14.01,2013-05-01 10:21:00,
2013-05-01 06:26:00,53.3,-4.1,30.25,NNE,13,0.0,0.0,9,0.00,,OVC033,0.00,VWS V14.01,2013-05-01 10:26:00,
2013-05-01 06:31:00,53.3,-4.1,30.25,NNE,13,0.0,0.0,9,0.00,,OVC033,0.00,VWS V14.01,2013-05-01 10:31:00,
2013-05-01 06:36:00,53.4,-4.0,30.25,NNE,13,0.0,0.0,9,0.00,,OVC033,0.00,VWS V14.01,2013-05-01 10:36:00,
2013-05-01 06:41:00,53.5,-3.9,30.25,NNE,13,0.0,0.0,9,0.00,,OVC033,0.00,VWS V14.01,2013-05-01 10:41:00,
2013-05-01 06:46:00,53.5,-3.9,30.26,NNE,13,0.0,0.0,9,0.00,,OVC033,0.00,VWS V14.01,2013-05-01 10:46:00,
2013-05-01 06:51:00,53.6,-3.9,30.26,NNE,13,0.0,0.0,9,0.00,,OVC033,0.00,VWS V14.01,2013-05-01 10:51:00,
2013-05-01 06:56:00,53.6,-6.3,30.26,NNE,13,0.0,0.0,8,0.00,,OVC033,0.00,VWS V14.01,2013-05-01 10:56:00,
2013-05-01 07:01:00,53.7,-6.2,30.26,NNE,13,0.0,0.0,8,0.00,,OVC038,0.00,VWS V14.01,2013-05-01 11:01:00,
2013-05-01 07:06:00,53.8,-6.2,30.26,NNE,13,0.0,0.0,8,0.00,,OVC038,0.00,VWS V14.01,2013-05-01 11:06:00,
2013-05-01 07:11:00,53.8,-6.2,30.26,NNE,13,0.0,0.0,8,0.00,,OVC038,0.00,VWS V14.01,2013-05-01 11:11:00,
2013-05-01 07:16:00,53.8,-6.2,30.26,NNE,13,0.0,0.0,8,0.00,,OVC038,0.00,VWS V14.01,2013-05-01 11:16:00,
2013-05-01 07:21:00,53.9,-6.1,30.27,NNE,13,0.0,0.0,8,0.00,,OVC038,0.00,VWS V14.01,2013-05-01 11:21:00,
2013-05-01 07:26:00,54.0,-6.0,30.27,NNE,13,0.0,0.0,8,0.00,,OVC038,0.00,VWS V14.01,2013-05-01 11:26:00,
2013-05-01 07:31:00,54.1,-5.9,30.27,NNE,13,0.0,0.0,8,0.00,,OVC038,0.00,VWS V14.01,2013-05-01 11:31:00,
2013-05-01 07:36:00,54.3,-5.8,30.27,NNE,13,0.0,0.0,8,0.00,,OVC038,0.00,VWS V14.01,2013-05-01 11:36:00,
2013-05-01 07:41:00,54.6,-5.5,30.27,NNE,13,0.0,0.0,8,0.00,,OVC038,0.00,VWS V14.01,2013-05-01 11:41:00,
2013-05-01 07:46:00,54.7,-5.5,30.27,East,90,0.0,0.0,8,0.00,,OVC038,0.00,VWS V14.01,2013-05-01 11:46:00,
2013-05-01 07:51:00,55.0,-5.2,30.27,East,90,0.0,1.0,8,0.00,,OVC038,0.00,VWS V14.01,2013-05-01 11:51:00,
2013-05-01 07:56:00,55.1,-5.2,30.27,East,91,0.0,0.0,8,0.00,,OVC038,0.00,VWS V14.01,2013-05-01 11:56:00,
2013-05-01 08:02:00,55.5,-7.6,30.28,East,91,0.0,0.0,7,0.00,,OVC036,0.00,VWS V14.01,2013-05-01 12:02:00,
2013-05-01 08:06:00,55.7,-7.5,30.28,East,93,0.0,0.0,7,0.00,,OVC036,0.00,VWS V14.01,2013-05-01 12:06:00,
2013-05-01 08:12:00,55.9,-7.3,30.28,East,98,0.0,0.0,7,0.00,,OVC036,0.00,VWS V14.01,2013-05-01 12:12:00,
2013-05-01 08:16:00,55.6,-7.5,30.28,NE,53,0.0,0.0,7,0.00,,OVC036,0.00,VWS V14.01,2013-05-01 12:16:00,
2013-05-01 08:22:00,55.9,-7.3,30.28,ENE,60,0.0,0.0,7,0.00,,OVC036,0.00,VWS V14.01,2013-05-01 12:22:00,
2013-05-01 08:27:00,56.4,-6.9,30.28,NE,41,0.0,0.0,7,0.00,,OVC036,0.00,VWS V14.01,2013-05-01 12:27:00,
2013-05-01 08:32:00,56.8,-6.7,30.28,NW,305,0.0,1.0,7,0.00,,OVC036,0.00,VWS V14.01,2013-05-01 12:32:00,
2013-05-01 08:37:00,57.2,-9.5,30.28,NW,308,0.0,1.0,6,0.00,,OVC036,0.00,VWS V14.01,2013-05-01 12:37:00,
2013-05-01 08:42:00,58.0,-8.9,30.29,NE,36,1.0,1.0,6,0.00,,OVC036,0.00,VWS V14.01,2013-05-01 12:42:00,
2013-05-01 08:47:00,58.4,-8.6,30.29,NE,51,0.0,0.0,6,0.00,,OVC036,0.00,VWS V14.01,2013-05-01 12:47:00,
2013-05-01 08:52:00,58.7,-8.4,30.29,NE,50,1.0,1.0,6,0.00,,OVC036,0.00,VWS V14.01,2013-05-01 12:52:00,
2013-05-01 08:57:00,58.8,-5.2,30.29,NNW,328,1.0,3.0,7,0.00,,OVC036,0.00,VWS V14.01,2013-05-01 12:57:00,
2013-05-01 09:02:00,59.0,-2.2,30.30,East,91,1.0,1.0,8,0.00,,OVC036,0.00,VWS V14.01,2013-05-01 13:02:00,
2013-05-01 09:07:00,59.3,2.8,30.30,ENE,73,0.0,0.0,10,0.00,,OVC036,0.00,VWS V14.01,2013-05-01 13:07:00,
2013-05-01 09:18:00,60.0,55.2,30.29,NE,41,0.0,0.0,84,0.00,,OVC036,0.00,VWS V14.01,2013-05-01 13:18:00,
2013-05-01 09:23:00,59.9,57.6,30.29,NE,44,0.0,8.0,92,0.00,,OVC036,0.00,VWS V14.01,2013-05-01 13:23:00,
2013-05-01 09:28:00,60.0,58.9,30.29,NW,315,1.0,8.0,96,0.00,,OVC036,0.00,VWS V14.01,2013-05-01 13:28:00,
2013-05-01 09:33:00,60.0,59.7,30.30,NE,47,0.0,5.0,99,0.00,,OVC036,0.00,VWS V14.01,2013-05-01 13:33:00,
2013-05-01 09:38:00,60.1,59.8,30.30,West,276,0.0,5.0,99,0.00,,OVC036,0.00,VWS V14.01,2013-05-01 13:38:00,
2013-05-01 09:43:00,60.2,60.2,30.29,West,274,0.0,5.0,100,0.00,,OVC036,0.00,VWS V14.01,2013-05-01 13:43:00,
2013-05-01 09:48:00,60.5,60.5,30.29,NE,45,1.0,5.0,100,0.00,,OVC036,0.00,VWS V14.01,2013-05-01 13:48:00,
2013-05-01 09:53:00,61.0,61.0,30.29,NW,309,0.0,5.0,100,0.00,,OVC036,0.00,VWS V14.01,2013-05-01 13:53:00,
2013-05-01 09:58:00,61.4,61.4,30.28,WNW,302,1.0,5.0,100,0.00,,OVC036,0.00,VWS V14.01,2013-05-01 13:58:00,
2013-05-01 10:03:00,61.6,61.6,30.28,NNE,32,0.0,3.0,100,0.00,,OVC036,0.00,VWS V14.01,2013-05-01 14:03:00,
2013-05-01 10:08:00,62.0,62.0,30.29,North,359,1.0,3.0,100,0.00,,OVC036,0.00,VWS V14.01,2013-05-01 14:08:00,
2013-05-01 10:13:00,62.3,62.3,30.29,NW,314,0.0,3.0,100,0.00,,OVC036,0.00,VWS V14.01,2013-05-01 14:13:00,
2013-05-01 10:18:00,62.7,62.7,30.29,ENE,57,1.0,3.0,100,0.00,,OVC036,0.00,VWS V14.01,2013-05-01 14:18:00,
2013-05-01 10:23:00,62.8,62.8,30.29,NW,307,0.0,4.0,100,0.00,,OVC036,0.00,VWS V14.01,2013-05-01 14:23:00,
2013-05-01 10:28:00,62.9,62.9,30.29,ENE,61,2.0,4.0,100,0.00,,OVC036,0.00,VWS V14.01,2013-05-01 14:28:00,
2013-05-01 10:33:00,62.8,62.8,30.29,NE,46,3.0,3.0,100,0.00,,OVC036,0.00,VWS V14.01,2013-05-01 14:33:00,
2013-05-01 10:38:00,62.7,43.3,30.29,SSE,164,0.0,0.0,49,0.00,,OVC036,0.00,VWS V14.01,2013-05-01 14:38:00,
2013-05-01 10:43:00,62.6,43.7,30.30,NE,51,0.0,2.0,50,0.00,,OVC036,0.00,VWS V14.01,2013-05-01 14:43:00,
2013-05-01 10:48:00,62.8,42.3,30.30,NE,51,0.0,2.0,47,0.00,,OVC036,0.00,VWS V14.01,2013-05-01 14:48:00,
2013-05-01 10:53:00,63.1,42.6,30.30,East,83,0.0,3.0,47,0.00,,OVC036,0.00,VWS V14.01,2013-05-01 14:53:00,
2013-05-01 10:58:00,63.3,44.4,30.30,North,349,0.0,3.0,50,0.00,,OVC036,0.00,VWS V14.01,2013-05-01 14:58:00,
2013-05-01 11:03:00,63.4,45.0,30.31,ESE,105,0.0,1.0,51,0.00,,OVC040,0.00,VWS V14.01,2013-05-01 15:03:00,
2013-05-01 11:08:00,63.4,45.5,30.31,East,101,1.0,3.0,52,0.00,,OVC040,0.00,VWS V14.01,2013-05-01 15:08:00,
2013-05-01 11:13:00,63.4,45.5,30.31,North,356,0.0,3.0,52,0.00,,OVC040,0.00,VWS V14.01,2013-05-01 15:13:00,
2013-05-01 11:18:00,63.9,47.0,30.31,NE,53,3.0,3.0,54,0.00,,OVC040,0.00,VWS V14.01,2013-05-01 15:18:00,
2013-05-01 11:23:00,64.3,46.3,30.31,ENE,65,0.0,3.0,52,0.00,,OVC040,0.00,VWS V14.01,2013-05-01 15:23:00,
2013-05-01 11:28:00,65.3,48.2,30.31,WNW,291,1.0,3.0,54,0.00,,OVC040,0.00,VWS V14.01,2013-05-01 15:28:00,
2013-05-01 11:33:00,66.1,50.0,30.32,NNW,335,0.0,2.0,56,0.00,,OVC040,0.00,VWS V14.01,2013-05-01 15:33:00,
2013-05-01 11:38:00,66.1,50.9,30.32,West,271,1.0,2.0,58,0.00,,OVC040,0.00,VWS V14.01,2013-05-01 15:38:00,
2013-05-01 11:43:00,65.6,50.4,30.32,ENE,58,0.0,3.0,58,0.00,,OVC040,0.00,VWS V14.01,2013-05-01 15:43:00,
2013-05-01 11:48:00,65.0,49.4,30.31,South,172,0.0,5.0,57,0.00,,OVC040,0.00,VWS V14.01,2013-05-01 15:48:00,
2013-05-01 11:53:00,64.7,48.7,30.31,NE,54,0.0,5.0,56,0.00,,OVC040,0.00,VWS V14.01,2013-05-01 15:53:00,
2013-05-01 11:58:00,64.3,48.3,30.31,SE,132,0.0,5.0,56,0.00,,OVC040,0.00,VWS V14.01,2013-05-01 15:58:00,
2013-05-01 12:03:00,64.1,47.6,30.31,SE,132,0.0,1.0,55,0.00,,BKN042,0.00,VWS V14.01,2013-05-01 16:03:00,
2013-05-01 12:08:00,64.0,47.5,30.30,ENE,60,2.0,2.0,55,0.00,,BKN042,0.00,VWS V14.01,2013-05-01 16:08:00,
2013-05-01 12:13:00,64.1,47.6,30.30,ENE,70,3.0,4.0,55,0.00,,BKN042,0.00,VWS V14.01,2013-05-01 16:13:00,
2013-05-01 12:18:00,64.5,48.0,30.30,NE,56,1.0,4.0,55,0.00,,BKN042,0.00,VWS V14.01,2013-05-01 16:18:00,
2013-05-01 12:23:00,65.1,49.5,30.30,NNE,18,3.0,5.0,57,0.00,,BKN042,0.00,VWS V14.01,2013-05-01 16:23:00,
2013-05-01 12:28:00,64.8,49.2,30.30,NE,46,2.0,6.0,57,0.00,,BKN042,0.00,VWS V14.01,2013-05-01 16:28:00,
2013-05-01 12:33:00,64.4,48.8,30.30,WSW,243,1.0,5.0,57,0.00,,BKN042,0.00,VWS V14.01,2013-05-01 16:33:00,
2013-05-01 12:38:00,64.5,48.5,30.30,NNE,33,0.0,5.0,56,0.00,,BKN042,0.00,VWS V14.01,2013-05-01 16:38:00,
2013-05-01 12:43:00,64.9,48.8,30.29,NNE,33,0.0,5.0,56,0.00,,BKN042,0.00,VWS V14.01,2013-05-01 16:43:00,
2013-05-01 12:48:00,65.4,49.3,30.29,ENE,58,1.0,5.0,56,0.00,,BKN042,0.00,VWS V14.01,2013-05-01 16:48:00,
2013-05-01 12:53:00,65.8,50.6,30.29,NNE,32,2.0,5.0,58,0.00,,BKN042,0.00,VWS V14.01,2013-05-01 16:53:00,
2013-05-01 12:58:00,65.7,50.5,30.29,NNW,335,1.0,5.0,58,0.00,,BKN042,0.00,VWS V14.01,2013-05-01 16:58:00,
2013-05-01 13:03:00,65.2,50.1,30.29,SSW,193,3.0,4.0,58,0.00,,OVC046,0.00,VWS V14.01,2013-05-01 17:03:00,
2013-05-01 13:08:00,64.7,49.6,30.29,NE,41,1.0,8.0,58,0.00,,OVC046,0.00,VWS V14.01,2013-05-01 17:08:00,
2013-05-01 13:13:00,64.7,49.1,30.28,NW,321,1.0,8.0,57,0.00,,OVC046,0.00,VWS V14.01,2013-05-01 17:13:00,
2013-05-01 13:18:00,64.8,49.2,30.28,WNW,302,0.0,8.0,57,0.00,,OVC046,0.00,VWS V14.01,2013-05-01 17:18:00,
2013-05-01 13:23:00,65.8,49.7,30.28,SSE,158,2.0,8.0,56,0.00,,OVC046,0.00,VWS V14.01,2013-05-01 17:23:00,
2013-05-01 13:28:00,66.4,51.2,30.28,ENE,65,0.0,8.0,58,0.00,,OVC046,0.00,VWS V14.01,2013-05-01 17:28:00,
2013-05-01 13:33:00,66.6,51.4,30.28,NNW,339,1.0,3.0,58,0.00,,OVC046,0.00,VWS V14.01,2013-05-01 17:33:00,
2013-05-01 13:38:00,65.7,50.5,30.28,East,82,0.0,7.0,58,0.00,,OVC046,0.00,VWS V14.01,2013-05-01 17:38:00,
2013-05-01 13:43:00,65.5,50.3,30.28,WNW,293,3.0,7.0,58,0.00,,OVC046,0.00,VWS V14.01,2013-05-01 17:43:00,
2013-05-01 13:48:00,65.4,50.2,30.28,NNE,14,2.0,7.0,58,0.00,,OVC046,0.00,VWS V14.01,2013-05-01 17:48:00,
2013-05-01 13:53:00,65.4,50.7,30.27,NE,49,0.0,7.0,59,0.00,,OVC046,0.00,VWS V14.01,2013-05-01 17:53:00,
2013-05-01 13:58:00,65.7,51.0,30.27,ENE,63,1.0,7.0,59,0.00,,OVC046,0.00,VWS V14.01,2013-05-01 17:58:00,
2013-05-01 14:03:00,66.1,51.4,30.27,NW,316,1.0,6.0,59,0.00,,OVC045,0.00,VWS V14.01,2013-05-01 18:03:00,
2013-05-01 14:08:00,66.9,52.1,30.27,NNE,21,2.0,6.0,59,0.00,,OVC045,0.00,VWS V14.01,2013-05-01 18:08:00,
2013-05-01 14:13:00,67.6,52.8,30.27,NNW,329,1.0,8.0,59,0.00,,OVC045,0.00,VWS V14.01,2013-05-01 18:13:00,
2013-05-01 14:18:00,67.8,53.4,30.27,East,100,2.0,11.0,60,0.00,,OVC045,0.00,VWS V14.01,2013-05-01 18:18:00,
2013-05-01 14:23:00,67.2,52.4,30.27,WSW,256,0.0,11.0,59,0.00,,OVC045,0.00,VWS V14.01,2013-05-01 18:23:00,
2013-05-01 14:28:00,67.2,52.9,30.27,North,4,3.0,11.0,60,0.00,,OVC045,0.00,VWS V14.01,2013-05-01 18:28:00,
2013-05-01 14:33:00,67.1,52.3,30.27,North,8,3.0,5.0,59,0.00,,OVC045,0.00,VWS V14.01,2013-05-01 18:33:00,
2013-05-01 14:38:00,67.4,53.0,30.26,NE,47,3.0,5.0,60,0.00,,OVC045,0.00,VWS V14.01,2013-05-01 18:38:00,
2013-05-01 14:43:00,67.5,53.1,30.27,NW,323,0.0,5.0,60,0.00,,OVC045,0.00,VWS V14.01,2013-05-01 18:43:00,
2013-05-01 14:48:00,67.1,52.3,30.27,NW,316,0.0,7.0,59,0.00,,OVC045,0.00,VWS V14.01,2013-05-01 18:48:00,
2013-05-01 14:53:00,66.7,52.4,30.27,WNW,300,0.0,7.0,60,0.00,,OVC045,0.00,VWS V14.01,2013-05-01 18:53:00,
2013-05-01 14:58:00,66.2,51.9,30.27,NW,311,1.0,7.0,60,0.00,,OVC045,0.00,VWS V14.01,2013-05-01 18:58:00,
2013-05-01 15:03:00,66.0,51.7,30.27,NE,51,2.0,3.0,60,0.00,,OVC043,0.00,VWS V14.01,2013-05-01 19:03:00,
2013-05-01 15:08:00,65.9,51.6,30.27,NNW,338,2.0,4.0,60,0.00,,OVC043,0.00,VWS V14.01,2013-05-01 19:08:00,
2013-05-01 15:13:00,66.3,51.6,30.27,NW,325,1.0,6.0,59,0.00,,OVC043,0.00,VWS V14.01,2013-05-01 19:13:00,
2013-05-01 15:18:00,66.8,52.0,30.28,NE,48,2.0,6.0,59,0.00,,OVC043,0.00,VWS V14.01,2013-05-01 19:18:00,
2013-05-01 15:23:00,66.9,52.1,30.27,NNW,328,1.0,6.0,59,0.00,,OVC043,0.00,VWS V14.01,2013-05-01 19:23:00,
2013-05-01 15:28:00,66.9,52.1,30.27,NW,323,0.0,6.0,59,0.00,,OVC043,0.00,VWS V14.01,2013-05-01 19:28:00,
2013-05-01 15:33:00,66.5,51.8,30.27,NNE,23,0.0,2.0,59,0.00,,OVC043,0.00,VWS V14.01,2013-05-01 19:33:00,
2013-05-01 15:38:00,66.1,51.4,30.27,SE,131,0.0,4.0,59,0.00,,OVC043,0.00,VWS V14.01,2013-05-01 19:38:00,
2013-05-01 15:43:00,65.9,50.7,30.28,NE,53,0.0,4.0,58,0.00,,OVC043,0.00,VWS V14.01,2013-05-01 19:43:00,
2013-05-01 15:48:00,65.7,50.5,30.28,East,92,2.0,4.0,58,0.00,,OVC043,0.00,VWS V14.01,2013-05-01 19:48:00,
2013-05-01 15:53:00,65.5,50.3,30.28,NE,51,1.0,5.0,58,0.00,,OVC043,0.00,VWS V14.01,2013-05-01 19:53:00,
2013-05-01 15:58:00,65.4,49.3,30.28,East,91,0.0,5.0,56,0.00,,OVC043,0.00,VWS V14.01,2013-05-01 19:58:00,
2013-05-01 16:03:00,65.4,49.8,30.28,NW,316,0.0,3.0,57,0.00,,OVC046,0.00,VWS V14.01,2013-05-01 20:03:00,
2013-05-01 16:08:00,65.6,49.5,30.28,WSW,250,4.0,4.0,56,0.00,,OVC046,0.00,VWS V14.01,2013-05-01 20:08:00,
2013-05-01 16:13:00,65.4,49.8,30.28,NE,55,0.0,4.0,57,0.00,,OVC046,0.00,VWS V14.01,2013-05-01 20:13:00,
2013-05-01 16:19:00,65.4,49.3,30.27,NE,56,1.0,4.0,56,0.00,,OVC046,0.00,VWS V14.01,2013-05-01 20:19:00,
2013-05-01 16:23:00,65.4,49.8,30.27,ENE,68,2.0,5.0,57,0.00,,OVC046,0.00,VWS V14.01,2013-05-01 20:23:00,
2013-05-01 16:28:00,65.4,49.3,30.27,WNW,291,1.0,5.0,56,0.00,,OVC046,0.00,VWS V14.01,2013-05-01 20:28:00,
2013-05-01 16:33:00,65.1,49.0,30.27,NW,312,1.0,2.0,56,0.00,,OVC046,0.00,VWS V14.01,2013-05-01 20:33:00,
2013-05-01 16:38:00,64.9,48.4,30.27,ENE,61,0.0,2.0,55,0.00,,OVC046,0.00,VWS V14.01,2013-05-01 20:38:00,
2013-05-01 16:43:00,64.6,47.6,30.27,NE,44,1.0,4.0,54,0.00,,OVC046,0.00,VWS V14.01,2013-05-01 20:43:00,
2013-05-01 16:49:00,64.1,46.6,30.27,NNE,20,0.0,4.0,53,0.00,,OVC046,0.00,VWS V14.01,2013-05-01 20:49:00,
2013-05-01 16:54:00,63.9,45.4,30.27,SW,231,0.0,4.0,51,0.00,,OVC046,0.00,VWS V14.01,2013-05-01 20:54:00,
2013-05-01 16:59:00,63.8,45.3,30.27,NE,41,0.0,4.0,51,0.00,,OVC046,0.00,VWS V14.01,2013-05-01 20:59:00,
2013-05-01 17:04:00,63.8,45.3,30.27,NE,39,1.0,2.0,51,0.00,,OVC048,0.00,VWS V14.01,2013-05-01 21:04:00,
2013-05-01 17:09:00,63.7,45.2,30.27,ENE,58,1.0,2.0,51,0.00,,OVC048,0.00,VWS V14.01,2013-05-01 21:09:00,
2013-05-01 17:14:00,63.6,44.6,30.27,ENE,57,0.0,2.0,50,0.00,,OVC048,0.00,VWS V14.01,2013-05-01 21:14:00,
2013-05-01 17:19:00,63.7,44.2,30.27,East,82,0.0,2.0,49,0.00,,OVC048,0.00,VWS V14.01,2013-05-01 21:19:00,
2013-05-01 17:24:00,63.9,44.4,30.27,NE,39,1.0,2.0,49,0.00,,OVC048,0.00,VWS V14.01,2013-05-01 21:24:00,
2013-05-01 17:29:00,64.1,45.1,30.27,North,10,0.0,2.0,50,0.00,,OVC048,0.00,VWS V14.01,2013-05-01 21:29:00,
2013-05-01 17:34:00,64.1,45.6,30.27,SW,222,0.0,2.0,51,0.00,,OVC048,0.00,VWS V14.01,2013-05-01 21:34:00,
2013-05-01 17:39:00,64.2,46.2,30.27,SE,131,0.0,2.0,52,0.00,,OVC048,0.00,VWS V14.01,2013-05-01 21:39:00,
2013-05-01 17:44:00,64.0,46.5,30.27,East,90,1.0,2.0,53,0.00,,OVC048,0.00,VWS V14.01,2013-05-01 21:44:00,
2013-05-01 17:49:00,63.9,46.0,30.27,NNE,20,0.0,2.0,52,0.00,,OVC048,0.00,VWS V14.01,2013-05-01 21:49:00,
2013-05-01 17:54:00,63.8,45.9,30.27,NE,55,1.0,3.0,52,0.00,,OVC048,0.00,VWS V14.01,2013-05-01 21:54:00,
2013-05-01 17:59:00,63.6,45.2,30.27,WNW,301,2.0,3.0,51,0.00,,OVC048,0.00,VWS V14.01,2013-05-01 21:59:00,
2013-05-01 18:04:00,63.5,44.5,30.27,SSE,166,1.0,2.0,50,0.00,,OVC048,0.00,VWS V14.01,2013-05-01 22:04:00,
2013-05-01 18:09:00,63.3,43.8,30.27,ESE,107,0.0,4.0,49,0.00,,OVC048,0.00,VWS V14.01,2013-05-01 22:09:00,
2013-05-01 18:14:00,63.1,43.1,30.27,NE,51,1.0,4.0,48,0.00,,OVC048,0.00,VWS V14.01,2013-05-01 22:14:00,
2013-05-01 18:19:00,62.8,42.3,30.27,NE,44,1.0,4.0,47,0.00,,OVC048,0.00,VWS V14.01,2013-05-01 22:19:00,
2013-05-01 18:24:00,62.6,41.0,30.27,NE,44,2.0,4.0,45,0.00,,OVC048,0.00,VWS V14.01,2013-05-01 22:24:00,
2013-05-01 18:29:00,62.5,40.3,30.27,ESE,102,0.0,4.0,44,0.00,,OVC048,0.00,VWS V14.01,2013-05-01 22:29:00,
2013-05-01 18:34:00,62.5,39.7,30.27,NW,321,0.0,3.0,43,0.00,,OVC048,0.00,VWS V14.01,2013-05-01 22:34:00,
2013-05-01 18:39:00,62.5,39.7,30.27,NE,49,0.0,3.0,43,0.00,,OVC048,0.00,VWS V14.01,2013-05-01 22:39:00,
2013-05-01 18:44:00,62.5,39.7,30.27,NE,45,1.0,3.0,43,0.00,,OVC048,0.00,VWS V14.01,2013-05-01 22:44:00,
2013-05-01 18:49:00,62.6,39.8,30.27,NNE,20,0.0,3.0,43,0.00,,OVC048,0.00,VWS V14.01,2013-05-01 22:49:00,
2013-05-01 18:54:00,62.6,39.8,30.27,SSE,148,0.0,3.0,43,0.00,,OVC048,0.00,VWS V14.01,2013-05-01 22:54:00,
2013-05-01 18:59:00,62.6,39.2,30.28,SSE,148,0.0,3.0,42,0.00,,OVC048,0.00,VWS V14.01,2013-05-01 22:59:00,
2013-05-01 19:04:00,62.5,39.1,30.28,ESE,103,0.0,1.0,42,0.00,,OVC049,0.00,VWS V14.01,2013-05-01 23:04:00,
2013-05-01 19:09:00,62.3,39.5,30.27,NNE,25,0.0,3.0,43,0.00,,OVC049,0.00,VWS V14.01,2013-05-01 23:09:00,
2013-05-01 19:14:00,62.2,38.8,30.27,ENE,72,1.0,3.0,42,0.00,,OVC049,0.00,VWS V14.01,2013-05-01 23:14:00,
2013-05-01 19:19:00,62.0,38.7,30.28,SW,226,1.0,3.0,42,0.00,,OVC049,0.00,VWS V14.01,2013-05-01 23:19:00,
2013-05-01 19:24:00,61.9,38.0,30.27,ESE,123,0.0,3.0,41,0.00,,OVC049,0.00,VWS V14.01,2013-05-01 23:24:00,
2013-05-01 19:29:00,61.8,37.2,30.28,ESE,120,0.0,3.0,40,0.00,,OVC049,0.00,VWS V14.01,2013-05-01 23:29:00,
2013-05-01 19:34:00,61.7,36.5,30.27,ESE,117,1.0,1.0,39,0.00,,OVC049,0.00,VWS V14.01,2013-05-01 23:34:00,
2013-05-01 19:39:00,61.6,36.4,30.28,ESE,107,0.0,1.0,39,0.00,,OVC049,0.00,VWS V14.01,2013-05-01 23:39:00,
2013-05-01 19:44:00,61.4,34.9,30.28,SE,133,0.0,1.0,37,0.00,,OVC049,0.00,VWS V14.01,2013-05-01 23:44:00,
2013-05-01 19:49:00,61.2,33.3,30.28,SE,132,0.0,1.0,35,0.00,,OVC049,0.00,VWS V14.01,2013-05-01 23:49:00,
2013-05-01 19:54:00,61.0,32.5,30.28,SE,129,0.0,1.0,34,0.00,,OVC049,0.00,VWS V14.01,2013-05-01 23:54:00,
2013-05-01 19:59:00,60.9,30.9,30.28,SE,129,0.0,1.0,32,0.00,,OVC049,0.00,VWS V14.01,2013-05-01 23:59:00,
2013-05-01 20:04:00,60.7,29.9,30.28,South,186,0.0,0.0,31,0.00,,OVC030,0.00,VWS V14.01,2013-05-02 00:04:00,
2013-05-01 20:09:00,60.5,29.7,30.29,SE,128,0.0,1.0,31,0.00,,OVC030,0.00,VWS V14.01,2013-05-02 00:09:00,
2013-05-01 20:14:00,60.4,28.9,30.29,SE,127,0.0,1.0,30,0.00,,OVC030,0.00,VWS V14.01,2013-05-02 00:14:00,
2013-05-01 20:19:00,60.3,28.8,30.29,SE,127,0.0,1.0,30,0.00,,OVC030,0.00,VWS V14.01,2013-05-02 00:19:00,
2013-05-01 20:24:00,60.2,27.9,30.29,SE,127,0.0,1.0,29,0.00,,OVC030,0.00,VWS V14.01,2013-05-02 00:24:00,
2013-05-01 20:29:00,60.1,26.9,30.29,SE,127,0.0,1.0,28,0.00,,OVC030,0.00,VWS V14.01,2013-05-02 00:29:00,
2013-05-01 20:34:00,60.0,26.0,30.29,SE,127,0.0,0.0,27,0.00,,OVC030,0.00,VWS V14.01,2013-05-02 00:34:00,
2013-05-01 20:39:00,59.9,25.0,30.30,SE,127,0.0,0.0,26,0.00,,OVC030,0.00,VWS V14.01,2013-05-02 00:39:00,
2013-05-01 20:44:00,59.9,24.0,30.30,SE,127,0.0,0.0,25,0.00,,OVC030,0.00,VWS V14.01,2013-05-02 00:44:00,
2013-05-01 20:49:00,59.8,23.0,30.30,SE,127,0.0,1.0,24,0.00,,OVC030,0.00,VWS V14.01,2013-05-02 00:49:00,
2013-05-01 20:54:00,59.7,21.9,30.30,SE,127,0.0,1.0,23,0.00,,OVC030,0.00,VWS V14.01,2013-05-02 00:54:00,
2013-05-01 20:59:00,59.7,21.9,30.30,SE,127,0.0,1.0,23,0.00,,OVC030,0.00,VWS V14.01,2013-05-02 00:59:00,
2013-05-01 21:04:00,59.6,20.7,30.30,SE,127,0.0,0.0,22,0.00,,OVC050,0.00,VWS V14.01,2013-05-02 01:04:00,
2013-05-01 21:09:00,59.5,20.6,30.30,SE,127,0.0,0.0,22,0.00,,OVC050,0.00,VWS V14.01,2013-05-02 01:09:00,
2013-05-01 21:14:00,59.5,19.6,30.30,SE,127,0.0,0.0,21,0.00,,OVC050,0.00,VWS V14.01,2013-05-02 01:14:00,
2013-05-01 21:19:00,59.4,19.5,30.30,SE,127,0.0,0.0,21,0.00,,OVC050,0.00,VWS V14.01,2013-05-02 01:19:00,
2013-05-01 21:24:00,59.4,18.3,30.30,SE,127,0.0,0.0,20,0.00,,OVC050,0.00,VWS V14.01,2013-05-02 01:24:00,
2013-05-01 21:29:00,59.3,17.1,30.31,SE,127,0.0,0.0,19,0.00,,OVC050,0.00,VWS V14.01,2013-05-02 01:29:00,
2013-05-01 21:34:00,59.3,15.8,30.31,SE,127,0.0,0.0,18,0.00,,OVC050,0.00,VWS V14.01,2013-05-02 01:34:00,
2013-05-01 21:39:00,59.2,14.4,30.31,SE,127,0.0,1.0,17,0.00,,OVC050,0.00,VWS V14.01,2013-05-02 01:39:00,
2013-05-01 21:44:00,59.2,15.7,30.32,South,181,0.0,1.0,18,0.00,,OVC050,0.00,VWS V14.01,2013-05-02 01:44:00,
2013-05-01 21:49:00,59.3,15.8,30.32,SSW,205,0.0,1.0,18,0.00,,OVC050,0.00,VWS V14.01,2013-05-02 01:49:00,
2013-05-01 21:54:00,59.4,17.1,30.32,ENE,58,0.0,1.0,19,0.00,,OVC050,0.00,VWS V14.01,2013-05-02 01:54:00,
2013-05-01 21:59:00,59.5,18.4,30.32,ENE,61,0.0,2.0,20,0.00,,OVC050,0.00,VWS V14.01,2013-05-02 01:59:00,
2013-05-01 22:04:00,59.6,18.5,30.32,North,360,0.0,1.0,20,0.00,,OVC030,0.00,VWS V14.01,2013-05-02 02:04:00,
2013-05-01 22:09:00,59.6,19.6,30.32,NE,50,0.0,1.0,21,0.00,,OVC030,0.00,VWS V14.01,2013-05-02 02:09:00,
2013-05-01 22:14:00,59.7,20.8,30.32,NE,40,0.0,1.0,22,0.00,,OVC030,0.00,VWS V14.01,2013-05-02 02:14:00,
2013-05-01 22:19:00,59.6,21.8,30.32,North,11,1.0,3.0,23,0.00,,OVC030,0.00,VWS V14.01,2013-05-02 02:19:00,
2013-05-01 22:24:00,59.7,23.9,30.32,NE,49,1.0,4.0,25,0.00,,OVC030,0.00,VWS V14.01,2013-05-02 02:24:00,
2013-05-01 22:29:00,59.8,25.8,30.32,West,280,1.0,5.0,27,0.00,,OVC030,0.00,VWS V14.01,2013-05-02 02:29:00,
2013-05-01 22:34:00,59.7,26.6,30.32,NNE,23,1.0,9.0,28,0.00,,OVC030,0.00,VWS V14.01,2013-05-02 02:34:00,
2013-05-01 22:39:00,59.5,28.1,30.32,ENE,61,4.0,9.0,30,0.00,,OVC030,0.00,VWS V14.01,2013-05-02 02:39:00,
2013-05-01 22:44:00,59.1,26.9,30.33,NNW,330,2.0,9.0,29,0.00,,OVC030,0.00,VWS V14.01,2013-05-02 02:44:00,
2013-05-01 22:49:00,58.8,25.8,30.33,NNE,27,1.0,9.0,28,0.00,,OVC030,0.00,VWS V14.01,2013-05-02 02:49:00,
2013-05-01 22:54:00,58.4,23.7,30.33,NE,55,1.0,9.0,26,0.00,,OVC030,0.00,VWS V14.01,2013-05-02 02:54:00,
2013-05-01 22:59:00,58.1,20.5,30.33,NE,47,2.0,9.0,23,0.00,,OVC030,0.00,VWS V14.01,2013-05-02 02:59:00,
2013-05-01 23:04:00,57.9,18.2,30.33,East,98,0.0,10.0,21,0.00,,-RA,0.00,VWS V14.01,2013-05-02 03:04:00,
2013-05-01 23:09:00,57.6,15.7,30.33,NW,311,1.0,10.0,19,0.00,,-RA,0.00,VWS V14.01,2013-05-02 03:09:00,
2013-05-01 23:14:00,57.3,12.9,30.34,NNE,26,1.0,10.0,17,0.00,,-RA,0.00,VWS V14.01,2013-05-02 03:14:00,
2013-05-01 23:19:00,57.0,11.3,30.34,ENE,66,2.0,10.0,16,0.00,,-RA,0.00,VWS V14.01,2013-05-02 03:19:00,
2013-05-01 23:24:00,56.9,9.8,30.33,North,8,0.0,10.0,15,0.00,,-RA,0.00,VWS V14.01,2013-05-02 03:24:00,
2013-05-01 23:29:00,56.8,8.1,30.34,NW,325,1.0,10.0,14,0.00,,-RA,0.00,VWS V14.01,2013-05-02 03:29:00,
2013-05-01 23:34:00,56.7,6.4,30.33,NW,314,0.0,3.0,13,0.00,,-RA,0.00,VWS V14.01,2013-05-02 03:34:00,
2013-05-01 23:39:00,56.6,4.6,30.34,NNW,345,0.0,3.0,12,0.00,,-RA,0.00,VWS V14.01,2013-05-02 03:39:00,
2013-05-01 23:44:00,56.5,4.5,30.34,NE,44,1.0,3.0,12,0.00,,-RA,0.00,VWS V14.01,2013-05-02 03:44:00,
2013-05-01 23:49:00,56.6,4.6,30.34,NNE,30,0.0,8.0,12,0.00,,-RA,0.00,VWS V14.01,2013-05-02 03:49:00,
2013-05-01 23:54:00,56.6,4.6,30.34,NE,53,1.0,8.0,12,0.00,,-RA,0.00,VWS V14.01,2013-05-02 03:54:00,
2013-05-01 23:59:00,56.4,2.6,30.34,WNW,285,0.0,8.0,11,0.00,,-RA,0.00,VWS V14.01,2013-05-02 03:59:00,